Location: Baia Mare
(47.6567°N, 23.5850°E)
Time: 16:37:37
(UTC+03:00)

ISS - Pass Details

Date: 18 July 2018
Orbit: 402 x 408 km, 51.6° (Epoch: 21 July)

Event Time Altitude Azimuth Distance (km) Brightness Sun altitude
Rises 05:00:14 0° 293° (WNW) 2,334 -0.2 -6.9°
Reaches altitude 10° 05:02:19 10° 290° (WNW) 1,471 -1.3 -6.7°
Maximum altitude 05:05:35 64° 209° (SSW) 456 -3.8 -6.3°
Drops below altitude 10° 05:08:51 10° 127° (SE) 1,466 -0.8 -5.8°
Sets 05:10:56 0° 124° (SE) 2,324 0.2 -5.6°
